Weather History for North Bend, OR

Change the Weather History Date:

Thursday, January 16, 2014

  Actual Average Record
Temperature  
Mean Temperature 50 °F 46 °F  
Max Temperature 63 °F 52 °F 69 °F (1985)
Min Temperature 37 °F 40 °F 23 °F (1917)
Degree Days  
Heating Degree Days 15 19  
Month to date heating degree days 271 306  
Since 1 July heating degree days 2098 2367  
Cooling Degree Days 0 0  
Month to date cooling degree days 0 0  
Year to date cooling degree days 0 0  
Moisture  
Dew Point 38 °F    
Average Humidity 72    
Maximum Humidity 86    
Minimum Humidity 48    
Precipitation  
Precipitation 0.00 in 0.34 in 1.70 in (1974)
Month to date precipitation 1.65 5.61  
Year to date precipitation 1.65 5.61  
Sea Level Pressure  
Sea Level Pressure 30.26 in    
Wind  
Wind Speed 5 mph (SE)    
Max Wind Speed 10 mph    
Max Gust Speed -    
Visibility 10 miles    
Events      
T = Trace of Precipitation, MM = Missing Value Source: NWS Daily Summary

Daily Weather History Graph

Daily Weather History Graph

Search for Another Location

Airport:

Trip Planner

Search our weather history database for the weather conditions in past years. The results will help you decide how hot, cold, wet, or windy it might be!

Date:

Astronomy

Jan. 16, 2014 Rise Set
Actual Time 7:46 AM PST 5:07 PM PST
Civil Twilight 7:14 AM PST 5:39 PM PST
Nautical Twilight 6:39 AM PST 6:14 PM PST
Astronomical Twilight 6:05 AM PST 6:48 PM PST
Moon 6:08 PM PST (1/16) 7:40 AM PST (1/16)
Length of Visible Light 10h 25m
Length of Day
9h 21m
Full, 100% of the Moon is Illuminated
Jan 16
Full
Jan 23
Last Quarter
Jan 30
New
Feb 6
First Quarter
Feb 14
Full

Hourly Weather History & Observations

Time (PST) Temp. Windchill Dew Point Humidity Pressure Visibility Wind Dir Wind Speed Gust Speed Precip Events Conditions
12:15 AM 46.4 °F 42.9 °F 37.4 °F 71% 30.34 in 10.0 mi SE 6.9 mph - N/A   Clear
12:35 AM 44.6 °F 40.2 °F 37.4 °F 76% 30.34 in 10.0 mi SE 8.1 mph - N/A   Clear
12:55 AM 42.8 °F 38.0 °F 37.4 °F 81% 30.34 in 10.0 mi SE 8.1 mph - N/A   Clear
1:15 AM 42.8 °F 38.0 °F 37.4 °F 81% 30.34 in 10.0 mi SE 8.1 mph - N/A   Clear
1:35 AM 41.0 °F - 37.4 °F 87% 30.33 in 10.0 mi Calm Calm - N/A   Clear
1:55 AM 42.8 °F 41.1 °F 37.4 °F 81% 30.33 in 10.0 mi SSE 3.5 mph - N/A   Clear
2:15 AM 42.8 °F 41.1 °F 37.4 °F 81% 30.33 in 10.0 mi SE 3.5 mph - N/A   Clear
2:35 AM 42.8 °F 40.1 °F 37.4 °F 81% 30.33 in 10.0 mi SE 4.6 mph - N/A   Clear
2:55 AM 41.0 °F 37.1 °F 37.4 °F 87% 30.33 in 10.0 mi SSE 5.8 mph - N/A   Clear
3:15 AM 39.2 °F 34.2 °F 37.4 °F 93% 30.33 in 10.0 mi SSE 6.9 mph - N/A   Clear
3:35 AM 39.2 °F 34.2 °F 35.6 °F 87% 30.33 in 10.0 mi SSE 6.9 mph - N/A   Clear
3:55 AM 39.2 °F 35.0 °F 35.6 °F 87% 30.32 in 10.0 mi SE 5.8 mph - N/A   Clear
4:15 AM 39.2 °F 35.0 °F 35.6 °F 87% 30.32 in 10.0 mi SSE 5.8 mph - N/A   Clear
4:35 AM 39.2 °F 33.6 °F 35.6 °F 87% 30.32 in 10.0 mi SSE 8.1 mph - N/A   Clear
4:55 AM 39.2 °F 35.0 °F 35.6 °F 87% 30.32 in 10.0 mi SE 5.8 mph - N/A   Clear
5:15 AM 39.2 °F 34.2 °F 35.6 °F 87% 30.31 in 10.0 mi SE 6.9 mph - N/A   Clear
5:35 AM 39.2 °F 35.9 °F 35.6 °F 87% 30.31 in 10.0 mi SE 4.6 mph - N/A   Clear
5:55 AM 39.2 °F 35.9 °F 35.6 °F 87% 30.32 in 10.0 mi ESE 4.6 mph - N/A   Clear
6:15 AM 39.2 °F 34.2 °F 35.6 °F 87% 30.32 in 10.0 mi SE 6.9 mph - N/A   Clear
6:35 AM 37.4 °F 32.8 °F 33.8 °F 87% 30.32 in 10.0 mi SE 5.8 mph - N/A   Clear
6:55 AM 39.2 °F 34.2 °F 35.6 °F 87% 30.31 in 10.0 mi ESE 6.9 mph - N/A   Clear
7:15 AM 39.2 °F 34.2 °F 35.6 °F 87% 30.31 in 10.0 mi ESE 6.9 mph - N/A   Clear
7:35 AM 39.2 °F 35.0 °F 35.6 °F 87% 30.32 in 10.0 mi ESE 5.8 mph - N/A   Clear
7:55 AM 39.2 °F - 33.8 °F 81% 30.32 in 10.0 mi Calm Calm - N/A   Clear
8:15 AM 39.2 °F 33.6 °F 33.8 °F 81% 30.32 in 10.0 mi SE 8.1 mph - N/A   Clear
8:35 AM 39.2 °F 37.0 °F 35.6 °F 87% 30.32 in 10.0 mi SE 3.5 mph - N/A   Clear
8:55 AM 42.8 °F 41.1 °F 35.6 °F 76% 30.33 in 10.0 mi SE 3.5 mph - N/A   Clear
9:15 AM 44.6 °F - 37.4 °F 76% 30.33 in 10.0 mi Calm Calm - N/A   Clear
9:35 AM 46.4 °F - 37.4 °F 71% 30.33 in 10.0 mi Calm Calm - N/A   Clear
9:55 AM 48.2 °F - 37.4 °F 66% 30.33 in 10.0 mi SE 4.6 mph - N/A   Clear
10:15 AM 48.2 °F - 37.4 °F 66% 30.32 in 10.0 mi ESE 3.5 mph - N/A   Clear
10:35 AM 51.8 °F - 39.2 °F 62% 30.32 in 10.0 mi SE 3.5 mph - N/A   Clear
10:55 AM 51.8 °F - 39.2 °F 62% 30.31 in 10.0 mi East 5.8 mph - N/A   Clear
11:15 AM 53.6 °F - 39.2 °F 58% 30.30 in 10.0 mi ESE 3.5 mph - N/A   Clear
11:35 AM 55.4 °F - 39.2 °F 54% 30.29 in 10.0 mi Calm Calm - N/A   Clear
11:55 AM 57.2 °F - 39.2 °F 51% 30.28 in 10.0 mi ESE 3.5 mph - N/A   Clear
12:15 PM 59.0 °F - 39.2 °F 48% 30.26 in 10.0 mi Calm Calm - N/A   Clear
12:35 PM 57.2 °F - 41.0 °F 55% 30.25 in 10.0 mi Calm Calm - N/A   Clear
12:55 PM 57.2 °F - 41.0 °F 55% 30.24 in 10.0 mi ENE 3.5 mph - N/A   Clear
1:15 PM 59.0 °F - 42.8 °F 55% 30.23 in 10.0 mi NE 3.5 mph - N/A   Clear
1:35 PM 60.8 °F - 42.8 °F 52% 30.23 in 10.0 mi Calm Calm - N/A   Clear
1:55 PM 62.6 °F - 42.8 °F 48% 30.22 in 10.0 mi NE 3.5 mph - N/A   Clear
2:15 PM 60.8 °F - 42.8 °F 52% 30.22 in 10.0 mi NE 3.5 mph - N/A   Clear
2:35 PM 60.8 °F - 42.8 °F 52% 30.21 in 10.0 mi NE 3.5 mph - N/A   Clear
2:55 PM 62.6 °F - 42.8 °F 48% 30.21 in 10.0 mi ENE 3.5 mph - N/A   Clear
3:15 PM 62.6 °F - 39.2 °F 42% 30.20 in 10.0 mi Calm Calm - N/A   Clear
3:35 PM 60.8 °F - 42.8 °F 52% 30.20 in 10.0 mi Calm Calm - N/A   Clear
3:55 PM 62.6 °F - 44.6 °F 52% 30.20 in 10.0 mi Calm Calm - N/A   Clear
4:15 PM 62.6 °F - 44.6 °F 52% 30.20 in 10.0 mi Calm Calm - N/A   Clear
4:35 PM 57.2 °F - 42.8 °F 59% 30.20 in 10.0 mi Calm Calm - N/A   Clear
4:55 PM 53.6 °F - 41.0 °F 62% 30.20 in 10.0 mi SSE 4.6 mph - N/A   Clear
5:15 PM 53.6 °F - 39.2 °F 58% 30.20 in 10.0 mi ESE 4.6 mph - N/A   Clear
5:35 PM 48.2 °F - 39.2 °F 71% 30.19 in 10.0 mi East 3.5 mph - N/A   Clear
5:55 PM 48.2 °F - 39.2 °F 71% 30.19 in 10.0 mi SSE 4.6 mph - N/A   Clear
6:15 PM 46.4 °F 41.9 °F 37.4 °F 71% 30.19 in 10.0 mi SSE 9.2 mph - N/A   Clear
6:35 PM 46.4 °F 43.5 °F 39.2 °F 76% 30.19 in 10.0 mi SE 5.8 mph - N/A   Clear
6:55 PM 44.6 °F 40.7 °F 37.4 °F 76% 30.19 in 10.0 mi SE 6.9 mph - N/A   Clear
7:15 PM 44.6 °F 40.7 °F 37.4 °F 76% 30.19 in 10.0 mi SE 6.9 mph - N/A   Clear
7:35 PM 46.4 °F 42.4 °F 37.4 °F 71% 30.18 in 10.0 mi SE 8.1 mph - N/A   Clear
7:55 PM 44.6 °F 39.7 °F 37.4 °F 76% 30.18 in 10.0 mi SSE 9.2 mph - N/A   Clear
8:15 PM 46.4 °F 41.9 °F 37.4 °F 71% 30.18 in 10.0 mi SE 9.2 mph - N/A   Clear
8:35 PM 44.6 °F 39.7 °F 37.4 °F 76% 30.18 in 10.0 mi SSE 9.2 mph - N/A   Clear
8:55 PM 44.6 °F 39.2 °F 37.4 °F 76% 30.18 in 10.0 mi SE 10.4 mph - N/A   Clear
9:15 PM 44.6 °F 39.2 °F 37.4 °F 76% 30.17 in 10.0 mi SSE 10.4 mph - N/A   Clear
9:35 PM 44.6 °F 39.2 °F 35.6 °F 71% 30.18 in 10.0 mi SE 10.4 mph - N/A   Clear
9:55 PM 44.6 °F 40.2 °F 35.6 °F 71% 30.17 in 10.0 mi SE 8.1 mph - N/A   Clear
10:15 PM 42.8 °F 38.6 °F 35.6 °F 76% 30.17 in 10.0 mi SE 6.9 mph - N/A   Clear
10:35 PM 41.0 °F - 37.4 °F 87% 30.17 in 10.0 mi Calm Calm - N/A   Clear
10:55 PM 46.4 °F 42.4 °F 35.6 °F 66% 30.16 in 10.0 mi ESE 8.1 mph - N/A   Clear
11:15 PM 42.8 °F 40.1 °F 37.4 °F 81% 30.16 in 10.0 mi ESE 4.6 mph - N/A   Clear
11:35 PM 44.6 °F - 37.4 °F 76% 30.16 in 10.0 mi Calm Calm - N/A   Clear
11:55 PM 42.8 °F 39.3 °F 35.6 °F 76% 30.15 in 10.0 mi SE 5.8 mph - N/A   Clear